Cambridge, MN

10:02 PM CST on January 23, 2017 (GMT -0600)
Cambridge Municipal

Weather History for KCBG - March, 2014

Change the Weather History Date:

Wednesday, March 26, 2014

  Actual Average Record
Temperature  
Mean Temperature 22 °F -  
Max Temperature 39 °F 42 °F 82 °F (2007)
Min Temperature 6 °F 23 °F -12 °F (1965)
Degree Days  
Heating Degree Days 42    
Moisture  
Dew Point 14 °F    
Average Humidity 61    
Maximum Humidity 73    
Minimum Humidity 48    
Precipitation  
Precipitation 0.00 in - - ()
Sea Level Pressure  
Sea Level Pressure 29.88 in    
Wind  
Wind Speed 5 mph (SE)    
Max Wind Speed 16 mph    
Max Gust Speed 26 mph    
Visibility 10 miles    
Events      
Averages and records for this station are not official NWS values.
T = Trace of Precipitation, MM = Missing Value Source: NWS Daily Summary

Daily Weather History Graph

Daily Weather History Graph

Search for Another Location

Airport or City:

Trip Planner

Search our weather history database for the weather conditions in past years. The results will help you decide how hot, cold, wet, or windy it might be!

Date:

Astronomy

Mar. 26, 2014 Rise Set
Actual Time 7:04 AM CDT 7:33 PM CDT
Civil Twilight 6:34 AM CDT 8:03 PM CDT
Nautical Twilight 5:59 AM CDT 8:38 PM CDT
Astronomical Twilight 5:23 AM CDT 9:15 PM CDT
Moon 4:26 AM CDT (3/26) 3:01 PM CDT (3/26)
Length of Visible Light 13h 28m
Length of Day
12h 28m
Waning Crescent, 21% of the Moon is Illuminated
Mar 26
Waning Crescent
Mar 30
New
Apr 7
First Quarter
Apr 15
Full
Apr 22
Last Quarter

Hourly Weather History & Observations

Time (CDT) Temp. Windchill Dew Point Humidity Pressure Visibility Wind Dir Wind Speed Gust Speed Precip Events Conditions
12:15 AM 6.8 °F - -0.4 °F 72% 30.12 in 10.0 mi Calm Calm - N/A   Clear
12:36 AM 8.6 °F - -0.4 °F 67% 30.12 in 10.0 mi Calm Calm - N/A   Clear
12:55 AM 6.8 °F - -0.4 °F 72% 30.12 in 10.0 mi Calm Calm - N/A   Clear
1:15 AM 6.8 °F - -0.4 °F 72% 30.12 in 10.0 mi Calm Calm - N/A   Clear
1:36 AM 6.8 °F - -2.2 °F 67% 30.11 in 10.0 mi Calm Calm - N/A   Clear
1:55 AM 6.8 °F - -2.2 °F 67% 30.11 in 10.0 mi Calm Calm - N/A   Clear
2:15 AM 6.8 °F - -2.2 °F 67% 30.11 in 10.0 mi Calm Calm - N/A   Clear
2:36 AM 6.8 °F - -0.4 °F 72% 30.11 in 10.0 mi Calm Calm - N/A   Clear
2:55 AM 6.8 °F - -0.4 °F 72% 30.10 in 10.0 mi Calm Calm - N/A   Clear
3:15 AM 10.4 °F 4.0 °F 1.4 °F 67% 30.10 in 10.0 mi SSE 3.5 mph - N/A   Clear
3:36 AM 10.4 °F 4.0 °F 3.2 °F 73% 30.10 in 10.0 mi SSE 3.5 mph - N/A   Clear
3:55 AM 12.2 °F 6.1 °F 3.2 °F 67% 30.09 in 10.0 mi SSE 3.5 mph - N/A   Clear
4:15 AM 12.2 °F 6.1 °F 3.2 °F 67% 30.09 in 10.0 mi SSE 3.5 mph - N/A   Clear
4:35 AM 12.2 °F 6.1 °F 3.2 °F 67% 30.09 in 10.0 mi SSE 3.5 mph - N/A   Clear
4:55 AM 10.4 °F 4.0 °F 3.2 °F 73% 30.08 in 10.0 mi SSE 3.5 mph - N/A   Clear
5:16 AM 12.2 °F 6.1 °F 3.2 °F 67% 30.07 in 10.0 mi SE 3.5 mph - N/A   Clear
5:35 AM 12.2 °F 6.1 °F 3.2 °F 67% 30.07 in 10.0 mi SSE 3.5 mph - N/A   Clear
5:55 AM 12.2 °F - 3.2 °F 67% 30.06 in 10.0 mi Calm Calm - N/A   Clear
6:16 AM 10.4 °F 2.2 °F 3.2 °F 73% 30.06 in 10.0 mi SSE 4.6 mph - N/A   Scattered Clouds
6:35 AM 10.4 °F 2.2 °F 3.2 °F 73% 30.07 in 10.0 mi SSE 4.6 mph - N/A   Scattered Clouds
6:56 AM 10.4 °F 4.0 °F 3.2 °F 73% 30.06 in 10.0 mi SE 3.5 mph - N/A   Clear
7:15 AM 12.2 °F 4.3 °F 3.2 °F 67% 30.06 in 10.0 mi SE 4.6 mph - N/A   Scattered Clouds
7:35 AM 14.0 °F 5.1 °F 5.0 °F 67% 30.05 in 10.0 mi SE 5.8 mph - N/A   Overcast
7:56 AM 14.0 °F 3.9 °F 6.8 °F 73% 30.05 in 10.0 mi SE 6.9 mph - N/A   Overcast
8:15 AM 15.8 °F 8.6 °F 6.8 °F 68% 30.04 in 10.0 mi SE 4.6 mph - N/A   Overcast
8:35 AM 15.8 °F 7.2 °F 6.8 °F 68% 30.03 in 10.0 mi SE 5.8 mph - N/A   Overcast
8:56 AM 17.6 °F 9.3 °F 8.6 °F 68% 30.02 in 10.0 mi SE 5.8 mph - N/A   Overcast
9:15 AM 19.4 °F 11.5 °F 10.4 °F 68% 30.01 in 10.0 mi SE 5.8 mph - N/A   Overcast
9:35 AM 21.2 °F 12.6 °F 10.4 °F 63% 30.00 in 10.0 mi SE 6.9 mph - N/A   Mostly Cloudy
9:56 AM 21.2 °F 13.6 °F 10.4 °F 63% 30.00 in 10.0 mi SE 5.8 mph - N/A   Overcast
10:15 AM 21.2 °F 12.6 °F 10.4 °F 63% 29.99 in 10.0 mi ESE 6.9 mph - N/A   Overcast
10:35 AM 23.0 °F 13.9 °F 12.2 °F 63% 29.99 in 10.0 mi ESE 8.1 mph - N/A   Overcast
10:55 AM 24.8 °F 16.1 °F 12.2 °F 59% 29.97 in 10.0 mi SE 8.1 mph - N/A   Overcast
11:15 AM 24.8 °F 14.6 °F 12.2 °F 59% 29.96 in 10.0 mi SE 10.4 mph 17.3 mph N/A   Mostly Cloudy
11:36 AM 26.6 °F 16.8 °F 14.0 °F 59% 29.93 in 10.0 mi ESE 10.4 mph 16.1 mph N/A   Clear
11:55 AM 28.4 °F 19.1 °F 14.0 °F 55% 29.92 in 10.0 mi ESE 10.4 mph 16.1 mph N/A   Scattered Clouds
12:15 PM 30.2 °F 20.2 °F 15.8 °F 55% 29.90 in 10.0 mi SE 12.7 mph 19.6 mph N/A   Scattered Clouds
12:36 PM 30.2 °F 19.8 °F 15.8 °F 55% 29.88 in 10.0 mi SE 13.8 mph 18.4 mph N/A   Clear
12:55 PM 32.0 °F 22.5 °F 15.8 °F 51% 29.87 in 10.0 mi SE 12.7 mph 19.6 mph N/A   Clear
1:15 PM 33.8 °F 25.8 °F 17.6 °F 52% 29.84 in 10.0 mi SE 10.4 mph 19.6 mph N/A   Clear
1:36 PM 33.8 °F 24.3 °F 17.6 °F 52% 29.82 in 10.0 mi ESE 13.8 mph 26.5 mph N/A   Clear
1:55 PM 33.8 °F 24.8 °F 17.6 °F 52% 29.81 in 10.0 mi SE 12.7 mph 24.2 mph N/A   Clear
2:15 PM 35.6 °F 25.9 °F 17.6 °F 48% 29.79 in 10.0 mi ESE 16.1 mph 26.5 mph N/A   Clear
2:36 PM 35.6 °F 26.6 °F 19.4 °F 52% 29.78 in 10.0 mi ESE 13.8 mph 18.4 mph N/A   Clear
2:55 PM 35.6 °F 25.9 °F 19.4 °F 52% 29.78 in 10.0 mi ESE 16.1 mph 23.0 mph N/A   Clear
3:16 PM 37.4 °F 29.8 °F 21.2 °F 52% 29.77 in 10.0 mi SE 11.5 mph 20.7 mph N/A   Clear
3:36 PM 37.4 °F 29.3 °F 21.2 °F 52% 29.75 in 10.0 mi SE 12.7 mph - N/A   Clear
3:55 PM 37.4 °F 28.9 °F 21.2 °F 52% 29.74 in 10.0 mi SE 13.8 mph 21.9 mph N/A   Clear
4:16 PM 37.4 °F 29.3 °F 21.2 °F 52% 29.73 in 10.0 mi SE 12.7 mph 20.7 mph N/A   Clear
4:35 PM 37.4 °F 30.3 °F 21.2 °F 52% 29.72 in 10.0 mi SE 10.4 mph 17.3 mph N/A   Clear
4:55 PM 39.2 °F 30.5 °F 23.0 °F 52% 29.71 in 10.0 mi SE 16.1 mph 23.0 mph N/A   Clear
5:16 PM 39.2 °F 33.0 °F 23.0 °F 52% 29.71 in 10.0 mi SE 9.2 mph 23.0 mph N/A   Clear
5:35 PM 39.2 °F 31.6 °F 23.0 °F 52% 29.70 in 10.0 mi SE 12.7 mph 19.6 mph N/A   Clear
5:55 PM 39.2 °F 32.0 °F 24.8 °F 56% 29.69 in 10.0 mi SE 11.5 mph 20.7 mph N/A   Clear
6:16 PM 39.2 °F 32.0 °F 24.8 °F 56% 29.69 in 10.0 mi SE 11.5 mph 21.9 mph N/A   Clear
6:35 PM 39.2 °F 33.6 °F 24.8 °F 56% 29.68 in 10.0 mi SE 8.1 mph - N/A   Clear
6:55 PM 39.2 °F 33.0 °F 24.8 °F 56% 29.67 in 10.0 mi SE 9.2 mph 16.1 mph N/A   Clear
7:16 PM 39.2 °F 32.5 °F 24.8 °F 56% 29.66 in 10.0 mi ESE 10.4 mph 19.6 mph N/A   Clear
7:35 PM 37.4 °F 30.3 °F 24.8 °F 60% 29.65 in 10.0 mi ESE 10.4 mph - N/A   Clear
7:56 PM 37.4 °F 30.3 °F 24.8 °F 60% 29.64 in 10.0 mi ESE 10.4 mph - N/A   Clear
8:15 PM 37.4 °F 30.8 °F 24.8 °F 60% 29.63 in 10.0 mi ESE 9.2 mph - N/A   Clear
8:35 PM 37.4 °F 29.8 °F 24.8 °F 60% 29.63 in 10.0 mi ESE 11.5 mph - N/A   Clear
8:55 PM 37.4 °F 32.1 °F 24.8 °F 60% 29.62 in 10.0 mi ESE 6.9 mph - N/A   Clear
9:16 PM 35.6 °F 29.9 °F 23.0 °F 60% 29.61 in 10.0 mi ESE 6.9 mph - N/A   Mostly Cloudy
9:35 PM 37.4 °F 32.8 °F 24.8 °F 60% 29.60 in 10.0 mi ESE 5.8 mph - N/A   Overcast
9:55 PM 37.4 °F 31.4 °F 24.8 °F 60% 29.60 in 10.0 mi ESE 8.1 mph - N/A   Overcast
10:15 PM 39.2 °F 33.0 °F 24.8 °F 56% 29.60 in 10.0 mi SE 9.2 mph 16.1 mph N/A   Overcast
10:35 PM 39.2 °F 32.5 °F 24.8 °F 56% 29.58 in 10.0 mi SE 10.4 mph 17.3 mph N/A   Overcast
10:56 PM 39.2 °F 32.5 °F 24.8 °F 56% 29.57 in 10.0 mi SE 10.4 mph 17.3 mph N/A   Overcast
11:15 PM 39.2 °F 32.0 °F 24.8 °F 56% 29.56 in 10.0 mi ESE 11.5 mph 17.3 mph N/A   Overcast
11:35 PM 39.2 °F 33.0 °F 26.6 °F 61% 29.55 in 10.0 mi SE 9.2 mph 18.4 mph N/A   Mostly Cloudy
11:56 PM 39.2 °F 32.5 °F 26.6 °F 61% 29.55 in 10.0 mi SE 10.4 mph 16.1 mph N/A   Mostly Cloudy